Погода в Энгозере

Россия / Республика Карелия     65°47′21″N   33°56′33″E
темп.,
°C
ветер,
м/с
пор.,
м/с
влажн.,
%
обл.,
%
осадки,
мм/ч
давл.,
гПа
погр.,
м
19 сентября, вс
вс1900:00+4ююз117594 0.0 103328
03:00+4юз117398 0.0 103320
06:00+4юз1172100 0.0 103312
09:00+6юз116252 0.0 1034158
12:00+9ю114860 0.0 10341408
15:00+9ююз114581 0.0 10341492
18:00+7ююв126262 0.0 103427
21:00+3ююз11765 0.0 103511
20 сентября, пн
пн2000:00+2з11763 0.0 103610
03:00+1з11780 0.0 103610
06:00+1зсз11810 0.0 103610
09:00+5з11640 0.0 1037130
12:00+9ююз11501 0.0 1036740
15:00+9ююз11495 0.0 10351089
18:00+6юв23685 0.0 103458
21:00+3ююв22840 0.0 103416
21 сентября, вт
вт2100:00+2ююв11922 0.0 103310
03:00+2ююв00935 0.0 103210
06:00+1всв119316 0.0 103110
09:00+4в1184100 0.0 103079
12:00+7юв246764 0.0 1029809
15:00+7ююв345610 0.0 10281096
18:00+5юв25775 0.0 1027188
21:00+2юв23935 0.0 102753
22 сентября, ср
ср2200:00+1ю22935 0.0 102714
03:000ю11925 0.0 102611
06:000ююз22935 0.0 102522
09:00+3ююз24721 0.0 1024221
12:00+7ю3558100 0.0 1023703
15:00+8ююз4657100 0.0 1021886
18:00+5ю377599 0.0 1019201
21:00+3ю3109088 0.0 1018216
23 сентября, чт
чт2300:00+2ю3119179 0.0 1016257
03:00+2ю311933 0.0 1014244
06:00+1ююв311944 0.0 1013233
09:00+4ююв412800 0.0 1011418
12:00+8ююв59670 0.0 1009764
15:00+9ююв57610 0.0 1007869
18:00+6юв411785 0.0 1006449
21:00+5юв312925 0.0 1005363